CW1459 Weather Reports


time (UTC)temp
F
wind
direction
speed
knots
gust
knots
rain 1hr
in
rain 24hr
in
rain mn
in
humidity
%
barometer
mb
20260904013356 79 360 10.4 13.9 0.00 0.20 0.20 89 1013.5
20260904012401 79 155 0.0 0.9 0.00 0.20 0.20 88 1012.4
20260904011331 79 155 0.0 1.7 0.00 0.20 0.20 88 1012.6
20260904010336 79 155 0.0 0.9 0.00 0.20 0.20 88 1012.4
20260904005318 79 155 0.9 1.7 0.00 0.20 0.20 88 1012.2
20260904004333 79 155 0.0 0.9 0.00 0.20 0.20 87 1012.5
20260904003340 79 155 0.0 0.0 0.00 0.20 0.20 86 1012.3
20260904002315 79 155 0.0 0.9 0.00 0.20 0.20 86 1012.4
20260904001339 80 155 0.0 1.7 0.00 0.20 0.20 85 1012.6
20260904000341 80 155 0.0 2.6 0.00 0.20 0.20 84 1012.9
20260903235315 81 153 0.0 0.9 0.00 0.20 0.20 82 1013.1
20260903234318 81 153 0.0 1.7 0.00 0.20 0.20 81 1013.0
20260903233348 82 151 0.9 4.3 0.00 0.20 0.20 80 1012.9
20260903232344 82 181 2.6 4.3 0.00 0.20 0.20 79 1012.7
20260903231316 83 152 1.7 4.3 0.00 0.20 0.20 78 1012.2
20260903230316 83 153 1.7 4.3 0.00 0.20 0.20 76 1012.2
20260903225334 84 165 1.7 3.5 0.00 0.20 0.20 76 1012.2
20260903224351 85 161 2.6 4.3 0.00 0.20 0.20 76 1012.2
20260903223327 86 143 0.9 2.6 0.00 0.20 0.20 74 1012.2
20260903222359 88 163 1.7 2.6 0.00 0.20 0.20 71 1012.2
20260903221340 89 155 1.7 2.6 0.00 0.20 0.20 70 1012.0
20260903220340 90 166 2.6 4.3 0.00 0.20 0.20 64 1011.9
20260903215346 90 175 3.5 6.1 0.00 0.20 0.20 64 1011.9
20260903214326 89 243 1.7 5.2 0.00 0.20 0.20 65 1012.0
20260903213320 89 192 2.6 7.0 0.00 0.20 0.20 65 1012.0
20260903212339 89 211 1.7 4.3 0.00 0.20 0.20 66 1012.1
20260903211341 89 209 3.5 6.1 0.00 0.20 0.20 65 1012.0
20260903210322 89 248 2.6 4.3 0.00 0.20 0.20 66 1012.0
20260903205339 88 259 2.6 6.1 0.00 0.20 0.20 66 1012.2
20260903204340 88 242 3.5 7.0 0.00 0.20 0.20 67 1012.3
20260903203336 88 261 3.5 8.7 0.00 0.20 0.20 68 1012.3
20260903202336 89 216 3.5 6.1 0.00 0.20 0.20 68 1012.6
20260903201317 88 215 4.3 7.0 0.00 0.20 0.20 69 1012.7
20260903200316 88 235 3.5 7.0 0.00 0.20 0.20 69 1012.8
20260903195317 87 223 3.5 7.0 0.00 0.20 0.20 69 1013.0
20260903194332 87 177 1.7 6.1 0.00 0.20 0.20 70 1013.1
20260903193336 87 234 2.6 7.8 0.00 0.20 0.20 70 1013.4
20260903192317 86 206 2.6 7.8 0.00 0.20 0.20 72 1013.6
20260903191316 85 216 1.7 6.1 0.00 0.20 0.20 73 1013.7
20260903190338 85 202 4.3 8.7 0.00 0.20 0.20 72 1014.0
20260903185318 84 229 4.3 7.0 0.00 0.20 0.20 77 1014.2
20260903184355 83 292 2.6 8.7 0.00 0.20 0.20 74 1014.3
20260903183353 83 213 0.9 7.8 0.00 0.20 0.20 78 1014.4
20260903182336 81 166 3.5 5.2 0.00 0.20 0.20 81 1014.3
20260903181314 80 219 1.7 4.3 0.00 0.20 0.20 84 1014.7
20260903180337 78 223 1.7 4.3 0.00 0.20 0.20 85 1014.9
20260903175351 78 222 2.6 4.3 0.00 0.20 0.20 85 1015.0
20260903174332 78 227 1.7 5.2 0.00 0.20 0.20 84 1015.0
20260903173339 78 194 4.3 7.0 0.00 0.20 0.20 85 1015.1
20260903172326 78 260 4.3 7.8 0.00 0.20 0.20 86 1015.2
20260903171317 77 170 2.6 6.1 0.00 0.20 0.20 89 1015.4
20260903170350 75 196 2.6 5.2 0.00 0.20 0.20 91 1015.4
20260903165327 74 169 1.7 3.5 0.00 0.29 0.20 90 1015.4
20260903164333 74 227 2.6 4.3 0.00 0.29 0.20 90 1015.8
20260903163334 74 202 0.9 3.5 0.00 0.29 0.20 91 1016.1
20260903162334 73 221 1.7 3.5 0.00 0.29 0.20 90 1016.3
20260903161336 74 248 1.7 3.5 0.00 0.29 0.20 91 1016.5
20260903160322 73 313 2.6 3.5 0.00 0.29 0.20 92 1016.7
20260903155330 72 329 0.9 1.7 0.00 0.29 0.20 94 1016.4
20260903154334 72 134 0.9 2.6 0.10 0.29 0.20 94 1016.7
20260903153314 71 134 0.0 1.7 0.18 0.29 0.20 94 1016.7
20260903152328 71 134 0.9 1.7 0.18 0.29 0.20 93 1016.9
20260903151315 70 140 2.6 3.5 0.18 0.29 0.20 93 1016.8
20260903150332 70 95 0.9 1.7 0.18 0.29 0.20 92 1017.4
20260903145315 71 78 2.6 6.1 0.17 0.28 0.19 91 1017.5
20260903144329 72 44 3.5 15.6 0.08 0.19 0.10 92 1018.2
20260903143326 73 340 7.8 15.6 0.00 0.11 0.02 93 1018.6
20260903142334 73 123 0.9 5.2 0.00 0.11 0.02 93 1016.5
20260903141337 73 124 3.5 9.6 0.00 0.11 0.02 93 1016.6
20260903140333 73 247 4.3 10.4 0.00 0.11 0.02 93 1017.4
20260903135334 74 249 2.6 5.2 0.00 0.11 0.02 93 1016.6
20260903134336 74 141 2.6 4.3 0.00 0.11 0.02 93 1015.6
20260903133332 73 161 2.6 7.8 0.00 0.11 0.02 93 1015.8
20260903132335 73 236 3.5 8.7 0.00 0.11 0.02 94 1016.5
20260903131316 73 166 1.7 7.8 0.02 0.11 0.02 94 1016.3
20260903130317 73 202 2.6 4.3 0.02 0.11 0.02 93 1016.1
20260903125318 73 199 2.6 5.2 0.02 0.11 0.02 93 1016.5
20260903124325 73 219 1.7 3.5 0.02 0.11 0.02 92 1016.7
20260903123333 73 46 0.9 2.6 0.02 0.11 0.02 91 1016.6
20260903122337 73 330 1.7 3.5 0.02 0.11 0.02 91 1017.2
20260903121313 73 145 2.6 5.2 0.00 0.09 0.00 90 1016.8
20260903120317 73 123 2.6 4.3 0.00 0.09 0.00 90 1016.6
20260903115314 73 235 2.6 6.1 0.00 0.09 0.00 90 1017.1
20260903114312 72 159 1.7 4.3 0.00 0.09 0.00 90 1017.0
20260903113323 72 106 1.7 5.2 0.00 0.09 0.00 91 1016.8
20260903112333 72 42 2.6 8.7 0.00 0.09 0.00 92 1016.7
20260903111336 72 351 2.6 7.0 0.00 0.09 0.00 92 1016.5
20260903110315 72 105 1.7 3.5 0.00 0.09 0.00 93 1016.6
20260903105338 72 360 0.0 3.5 0.00 0.09 0.00 93 1016.9
20260903104313 72 351 1.7 5.2 0.00 0.09 0.00 93 1016.8
20260903103324 72 96 3.5 7.8 0.00 0.09 0.00 93 1016.5
20260903102340 72 119 2.6 7.8 0.00 0.09 0.00 93 1016.8
20260903101317 72 5 4.3 7.8 0.00 0.09 0.00 93 1016.8
20260903100315 72 351 2.6 5.2 0.00 0.09 0.00 93 1016.8
20260903095334 72 342 3.5 4.3 0.00 0.09 0.00 93 1016.7
20260903094313 72 24 1.7 8.7 0.00 0.09 0.00 92 1016.0
20260903093334 72 130 4.3 7.0 0.00 0.09 0.00 92 1015.6
20260903092322 72 117 5.2 8.7 0.00 0.09 0.00 92 1015.5
20260903091356 72 132 0.9 2.6 0.00 0.09 0.00 91 1015.7
20260903090340 72 104 0.9 3.5 0.00 0.09 0.00 91 1015.6
20260903085319 73 17 1.7 6.1 0.00 0.09 0.00 91 1015.8
20260903084403 73 92 2.6 7.8 0.00 0.09 0.00 91 1015.6
20260903083334 73 178 0.9 2.6 0.00 0.09 0.00 91 1015.2
20260903082338 73 146 1.7 3.5 0.00 0.09 0.00 91 1015.1
20260903081318 73 316 0.9 2.6 0.00 0.09 0.00 91 1015.1
20260903080342 73 129 0.9 2.6 0.00 0.09 0.00 92 1014.8
20260903075316 73 167 0.9 3.5 0.00 0.09 0.00 92 1014.7
20260903074338 73 203 1.7 4.3 0.00 0.09 0.00 91 1014.8
20260903073316 72 140 1.7 7.0 0.00 0.09 0.00 91 1014.9
20260903072338 72 148 1.7 3.5 0.00 0.09 0.00 91 1015.1
20260903071319 72 111 2.6 3.5 0.00 0.09 0.00 91 1015.0
20260903070318 73 32 0.0 1.7 0.00 0.09 0.00 90 1015.2
20260903065335 73 32 0.9 1.7 0.00 0.09 0.00 90 1015.2
20260903064338 73 32 0.0 0.9 0.00 0.09 0.00 89 1015.2
20260903063327 73 32 0.9 1.7 0.00 0.09 0.00 89 1015.0
20260903062324 74 32 0.9 1.7 0.00 0.09 0.00 89 1014.9
20260903061338 74 32 0.9 1.7 0.00 0.09 0.00 89 1014.8
20260903060317 74 32 0.0 1.7 0.00 0.09 0.00 88 1014.6
20260903055317 74 19 1.7 2.6 0.00 0.09 0.00 88 1014.6
20260903054341 74 225 0.0 0.9 0.00 0.09 0.00 87 1014.5
20260903053339 75 225 0.0 3.5 0.00 0.09 0.00 86 1014.5
20260903052319 75 184 2.6 3.5 0.00 0.09 0.00 86 1014.7
20260903051317 75 182 1.7 3.5 0.00 0.09 0.00 86 1014.7
20260903050318 75 165 1.7 2.6 0.00 0.09 0.00 86 1014.9
20260903045356 75 200 0.0 1.7 0.00 0.09 0.00 85 1015.1
20260903044339 75 200 0.9 2.6 0.00 0.09 0.00 84 1015.0
20260903043340 75 198 0.9 3.5 0.00 0.09 0.00 84 1014.9
20260903042319 75 147 3.5 6.1 0.00 0.09 0.00 84 1015.2
20260903041318 75 170 1.7 4.3 0.00 0.09 0.00 84 1015.5
20260903040318 75 215 0.9 6.1 0.00 0.09 0.00 85 1015.6
20260903035320 75 175 1.7 5.2 0.00 0.09 0.09 85 1015.6
20260903034317 75 138 5.2 9.6 0.00 0.09 0.09 85 1015.8
20260903033339 74 133 4.3 8.7 0.00 0.09 0.09 86 1016.0
20260903032338 74 136 3.5 7.0 0.00 0.09 0.09 86 1015.9
20260903031319 74 165 2.6 4.3 0.00 0.09 0.09 85 1015.6
20260903030316 75 157 2.6 4.3 0.00 0.09 0.09 85 1015.4
20260903025318 75 155 3.5 7.0 0.00 0.09 0.09 85 1015.4
20260903024344 75 156 4.3 7.8 0.00 0.09 0.09 85 1015.3
20260903023321 75 155 1.7 4.3 0.00 0.09 0.09 85 1015.3
20260903022322 75 163 2.6 7.8 0.00 0.09 0.09 85 1015.3
20260903021336 75 113 2.6 6.1 0.00 0.09 0.09 85 1015.4
20260903020340 74 132 3.5 7.0 0.00 0.09 0.09 85 1015.6
20260903015316 74 164 3.5 7.8 0.00 0.09 0.09 86 1015.8
20260903014333 74 128 1.7 3.5 0.00 0.09 0.09 85 1015.8